Showing default

DEKART, 46493

Orbit data source: Space-Track

DEKART, 46493 is a payload satellite owned by MGU (CIS) in SSO that was launched on Mon, 28 Sep 2020 UTC via a SOYUZ-2-1B launch vehicle from the Plesetsk Missile And Space Complex (PKMTR). Payload-class satellites include a variety of spacecraft equipped with specific instruments for various scientific and technological missions. These include communications satellites like Starlink; space stations such as the ISS; scientific satellites like the Hubble; Earth observation satellites from companies like Planet Labs, Umbra, and HawkEye 360; GPS; miniature CubeSats for education and research; and military/defense satellites.

Loading next visibility...
Identifier
46493, 2020-068H
Orbit
SSO
Country
Flag of CISCIS
Related business
Manufacturer
MGU
Mission
Operational Amateur Science
Bus & Motor
CUBESAT 3U, Unknown motor
Mass
4 kg wet, 4 kg dry
Launch date (UTC)
2020-09-28 (5 years ago)
Launch vehicle
SOYUZ-2-1B
Launch site
Plesetsk Missile And Space Complex (PKMTR)
Object type
Payload
Rocket body
Debris
Shape & HBR
Box, Unknown HBR
Radar Cross Section
0.035 m², Medium (>0.1 m² and < 1m²)

Expand to show TLE details & history
Last TLE update: 6 hours ago

TLE from 6 hours ago
0 DEKART
1 46493U 20068H   25351.91496617  .00010161  00000-0  32842-3 0  9992
2 46493  97.8720 343.9088 0009238 197.0149 163.0783 15.32267112287969
Epoch: 2025-12-17T21:57Z
TLE epoch observation values (Epoch: 2025-12-17T21:57:33.077Z)
Latitude
-0°
Longitude
-72.257°
Altitude
478.197 km
Speed
7.623 km/s
True Right ascension
22h 55m 38s
True Declination
0° 00' 00"
Sunlit
Object was in daylight at epoch
Visualization orbit readout
Latitude
Unknown
Longitude
Unknown
Altitude
Unknown
Speed
Unknown
Apparent Right ascension
Unknown
Apparent Declination
Unknown
Sunlit
N/A
Visualization observer readout
Local Sidereal Time
03:03:35
Azimuth
Unknown
Elevation
Unknown
Doppler factor
Unknown
Orbital elements
Apogee altitude
472.343 km
Perigee altitude
459.698 km
Semi-major axis
6,844.157 km
Eccentricity
0.00092
Inclination
97.872°
RAAN
343.9088°
Arg. of periapsis
197.0149°
True anomaly
163.10908°
Mean anomaly
163.0783°
Eccentric anomaly
163.09369°
Mean motion
3.83322 °/min
Orbital period
93.92 mins
BSTAR
0.00032842
Loading maneuver chart data...
Computing Atmospheric mass density...
Loading historical data...
Loading historical data...
Loading historical data...
Loading historical data...
Loading historical data...
Loading historical data...
Loading historical data...

Documentation

Showing up to 5 results
|